Location: G�kdere
(37.0328°N, 30.9000°E)
Time: 03:08:05
(UTC+00:00)

Cosmos 1959 Rocket - Pass Details

Date: 03 March 2021
Orbit: 948 x 996 km, 83.0° (Epoch: 22 April)

Event Time Altitude Azimuth Distance (km) Brightness Sun altitude
Rises 17:22:32 0° 174° (S) 3,609 7.4 -18.7°
Reaches altitude 10° 17:25:02 10° 170° (S) 2,664 6.6 -19.2°
Maximum altitude 17:31:00 60° 92° (E) 1,078 4.4 -20.4°
Drops below altitude 10° 17:36:59 10° 14° (NNE) 2,680 6.7 -21.6°
Sets 17:39:31 0° 11° (NNE) 3,632 7.5 -22.1°
